Location: Unspecified
(0.0000°N, 0.0000°E)
Time: 00:00:32
(UTC+00:00)

ZACube-1 - Visible Passes

Search period start: 19 August 2019 00:00
Search period end: 29 August 2019 00:00
Orbit: 585 x 666 km, 97.6° (Epoch: 17 August)

Date Brightness Start Highest point End Pass type
(mag) Time Alt. Az. Time Alt. Az. Time Alt. Az.
19 Aug ? 18:54:12 10° SSW 18:57:49 23° WSW 19:01:27 10° NW visible
20 Aug ? 05:28:22 10° NE 05:31:19 19° ESE 05:34:15 10° SSE visible
20 Aug ? 19:14:43 10° SW 19:16:48 13° WSW 19:18:52 10° WNW visible
23 Aug ? 18:33:27 10° S 18:37:47 43° WSW 18:42:06 10° NNW visible
24 Aug ? 18:53:07 10° SSW 18:56:47 24° WSW 19:00:24 10° NW visible
25 Aug ? 05:27:15 10° ENE 05:30:10 19° ESE 05:33:06 10° SSE visible
25 Aug ? 19:13:39 10° SW 19:15:44 13° WSW 19:17:49 10° WNW visible
28 Aug ? 18:32:24 10° S 18:36:44 43° WSW 18:41:02 10° NNW visible
